{"data":{"norad_id":57434,"epoch":"2026-09-20T14:56:16.746720Z","epoch_age_seconds":117034,"freshness":"FRESH","line1":"1 57434U 23105E   26263.62241605  .00000587  00000+0  30848-4 0  9995","line2":"2 57434  43.0007 239.0280 0001238 271.8213  88.2497 15.27575093175343","mean_motion":15.27575093,"eccentricity":0.0001238,"inclination_deg":43.0007,"raan_deg":239.028,"arg_perigee_deg":271.8213,"mean_anomaly_deg":88.2497,"bstar":3.0848e-5,"rev_number":17534,"period_min":94.26705152491,"perigee_km":482.21437274454,"apogee_km":483.91320606,"semimajor_km":6861.2007894023,"source":"CELESTRAK","updated_at":"2026-09-21T09:00:33.625968Z"}}